Location: Euclid Homes (historical)
(41.5844°N, 81.5389°W)
Time: 06:44:19
(UTC+00:00)

Daily predictions for brighter satellites

Satellite Brightness Start Highest point End
(mag) Time Altitude Azimuth Time Altitude Azimuth Time Altitude Azimuth
YAOGAN 1 4.4 22:33:37 10° E 22:34:59 11° ENE 22:36:22 10° NE
Cosmos 2221 Rocket 4.2 22:33:11 10° NNW 22:37:38 64° W 22:42:00 10° S
Cosmos 1812 3.8 22:43:21 10° ESE 22:44:58 14° E 22:46:33 10° NE
IRS-P3 4.5 22:40:35 10° SE 22:45:33 42° ENE 22:50:33 10° N
Cosmos 1441 Rocket 3.2 22:42:27 10° NNW 22:45:47 70° W 22:49:07 10° S
SJ 16-02 3.2 22:45:04 10° ESE 22:46:23 11° E 22:47:35 10° ENE
Cosmos 2058 4.4 22:45:38 10° NE 22:47:57 15° ENE 22:50:16 10° ESE
Cosmos 1484 Rocket 4.4 22:44:56 10° SSW 22:48:09 36° W 22:51:26 10° NNW
OAO 2 Rocket 4.4 22:48:21 10° WSW 22:52:57 37° S 22:57:37 10° ESE
Tiangong 0.9 22:54:11 10° WSW 22:56:00 14° SSW 22:57:49 10° S
Cosmos 1869 3.4 22:52:46 10° SSE 22:56:06 40° E 22:59:25 10° NNE
ARIANE 5 R/B 2.4 22:52:30 10° SSE 22:57:27 76° ENE 23:02:27 10° N
DNEPR-1 R/B 4.0 22:53:01 10° NW 22:57:37 81° WSW 23:03:00 10° SSE
Cosmos 44 Rocket 3.8 22:54:36 10° S 22:58:57 38° ESE 23:03:04 12° NE
SMAP 3.2 22:56:24 10° S 23:01:03 81° WSW 23:05:44 10° NNW
Timation 2 Rocket 4.3 22:54:38 10° S 23:01:20 60° ESE 23:08:04 10° NNE
AQUARIUS 4.0 23:05:56 10° SSE 23:10:19 72° ENE 23:14:44 10° N
Cosmos 2061 Rocket 4.3 23:04:21 10° SSW 23:10:39 74° W 23:16:56 10° N
Cosmos 1782 Rocket 4.5 23:06:39 10° SSW 23:10:58 51° W 23:15:18 10° N
SL-4 R/B 4.0 23:09:49 10° W 23:12:41 24° SW 23:15:39 10° S
Landsat 7 3.8 23:09:25 10° SSE 23:14:03 84° WSW 23:18:44 10° NNW
Meteor 2-12 Rocket 4.4 23:12:15 10° N 23:18:21 71° E 23:24:22 10° SSE
SPOT 1/Viking Rocket 3.6 23:18:17 10° SSE 23:23:16 53° ENE 23:28:19 10° N
ATLAS 2AS CENTAUR R/B 4.3 23:21:44 10° N 23:25:21 15° NNE 23:27:19 13° NE
Cosmos 407 Rocket 3.5 23:20:35 10° SSW 23:25:47 85° WNW 23:30:58 10° NNE
Geosat FO 3.8 23:23:26 10° SSE 23:26:20 75° ENE 23:29:12 10° NNW
CZ-2D R/B 4.1 23:23:26 10° S 23:26:26 41° W 23:29:27 10° NNW
ISS -3.3 23:23:26 10° WSW 23:26:43 55° NNW 23:28:16 27° NE
SL-12 R/B(2) 4.3 23:20:48 10° SW 23:28:35 86° NW 23:38:05 10° NE
Cosmos 2082 Rocket 2.7 23:24:40 10° N 23:29:50 36° ENE 23:33:07 20° ESE
Cosmos 1943 Rocket 2.1 23:24:41 10° SSW 23:30:19 88° ESE 23:35:56 10° NNE
Cosmos 1464 Rocket 4.1 23:24:18 10° SSE 23:30:22 52° E 23:36:25 10° NNE
Cosmos 371 Rocket 4.1 23:26:35 10° SSE 23:30:37 28° E 23:31:10 27° E
Cosmos 2278 Rocket 2.1 23:25:01 10° SSW 23:30:40 85° ESE 23:36:22 10° NNE
OAO 3 Rocket 4.2 23:26:46 10° SW 23:30:54 33° S 23:33:15 20° ESE
Cosmos 2151 Rocket 3.9 23:27:02 10° SSE 23:31:16 44° E 23:35:05 13° NNE
Aureole 3 Rocket 2.0 23:29:04 10° S 23:32:11 84° E 23:34:33 16° N
Cosmos 1975 Rocket 3.8 23:28:35 10° NNW 23:32:49 54° W 23:37:04 10° S
ATLAS 5 CENTAUR R/B 2.4 23:31:30 10° NW 23:36:05 63° WSW 23:41:46 10° SSE
Cosmos 304 Rocket 4.4 23:32:31 10° SSE 23:36:42 32° ESE 23:37:16 31° E
CZ-4 R/B 4.2 23:33:26 10° SSE 23:37:24 83° ENE 23:41:23 10° N
COSMO-SKYMED 1 2.4 23:36:04 15° NNE 23:39:26 61° ESE 23:43:29 10° S
Sich 1 Rocket 4.1 23:35:32 10° SSE 23:39:38 35° E 23:40:00 35° E
MOS 1 Rocket 3.2 23:36:00 10° S 23:40:15 75° WSW 23:44:41 10° NNW
USA 215 3.8 23:35:11 10° SSE 23:41:35 58° SW 23:48:02 10° NW
Spot 4 Rocket 3.9 23:37:07 10° SSE 23:42:10 67° ENE 23:47:14 10° N
Cosmos 2034 Rocket 4.3 23:36:40 10° SSE 23:42:23 42° E 23:48:12 10° NNE
SKYMED 2 3.6 23:39:23 10° N 23:43:45 82° WNW 23:48:05 10° SSW
Helios 1A Rocket 2.2 23:43:03 36° NNE 23:44:17 77° ESE 23:47:40 10° S
Timation 1 Rocket 4.2 23:39:00 10° NNW 23:44:59 77° ENE 23:50:56 10° SSE
Okean 1 Rocket 3.4 23:42:37 10° SSE 23:46:31 40° E 23:46:31 40° E
RESURS DK-1 2.2 23:51:02 10° NNW 23:55:03 87° WSW 23:57:09 27° SSE
